GFSNGP_700_spd_114.txt.gz
Wind_Speed
21 19 8 3 13 16 19 30 26 25 21 17 17 16 15 11 9 8 9 8 8 9 6 10 12 12 15 21 28 28 25 29 25 21 20 19 15 12 9 9 11 14 17 20
22 15 11 4 4 5 11 22 24 19 27 22 16 17 16 12 12 9 8 4 3 8 8 10 14 17 19 24 29 27 31 28 23 23 21 20 17 15 13 10 10 10 12 17
9 17 6 5 7 1 5 5 6 15 12 20 23 21 16 15 15 12 9 4 5 6 4 8 6 5 17 24 28 33 32 25 24 23 22 21 19 18 16 13 12 11 11 10
16 14 3 4 10 1 3 3 4 6 7 13 22 24 24 22 17 14 10 7 4 6 5 8 6 6 9 15 17 18 26 26 26 25 23 22 22 20 18 16 14 13 12 12
8 13 4 5 14 10 8 5 5 7 11 14 21 21 20 17 15 11 9 9 9 9 10 11 12 11 9 11 13 16 21 22 21 21 22 24 20 18 17 16 17 17 17 16
10 6 3 5 9 9 9 4 1 9 9 12 11 11 17 17 10 7 9 11 11 12 14 15 13 11 12 15 14 7 6 16 18 19 19 21 22 21 19 14 14 17 20 22
7 5 7 11 13 7 4 9 1 9 15 15 15 18 15 11 9 7 9 10 11 11 13 13 12 10 10 12 7 14 15 12 23 20 18 23 21 21 25 30 24 25 25 23
5 4 5 10 4 9 12 11 2 7 8 13 10 9 6 4 2 4 4 4 7 8 9 10 10 9 9 7 9 12 14 14 14 21 21 20 19 26 32 29 28 28 29 27
7 8 15 15 9 13 11 10 12 10 11 10 8 5 3 2 1 1 3 4 6 7 8 9 10 10 9 10 8 9 12 15 14 22 23 26 29 28 31 26 25 28 31 32
21 5 13 19 15 8 10 6 6 14 13 9 6 4 2 2 4 3 4 5 6 7 9 7 9 9 10 11 13 11 10 13 16 20 23 28 33 36 36 35 34 36 36 35
12 12 15 10 13 12 10 11 7 11 13 10 6 2 1 2 3 4 6 8 8 7 7 8 10 7 7 7 9 13 14 13 13 16 20 26 30 34 35 37 41 39 32 32
9 8 7 8 7 9 8 12 14 20 18 13 9 6 3 3 4 6 7 9 9 9 7 7 8 9 6 6 6 8 10 11 12 13 15 18 24 30 33 35 34 31 35 34
10 14 9 5 4 5 8 13 12 10 13 18 12 8 5 6 7 8 8 10 10 10 9 8 8 8 8 6 6 8 9 10 12 12 13 14 13 16 21 24 26 26 29 33
14 15 12 10 6 1 5 10 7 9 10 12 7 4 5 7 8 10 10 10 11 10 10 9 8 8 7 7 7 8 9 9 7 7 7 6 6 6 7 11 16 19 24 25
17 18 18 14 10 7 2 1 9 12 14 10 8 8 10 11 10 11 10 10 10 11 10 9 8 8 6 6 7 9 9 9 9 8 8 7 7 7 7 7 9 12 12 17
22 20 17 16 12 10 7 4 7 7 8 11 12 12 12 11 11 9 8 8 8 8 9 9 9 8 7 6 6 7 6 5 6 7 7 5 3 4 6 7 7 6 6 5
19 15 15 13 14 13 11 10 9 7 8 9 11 13 12 11 10 10 8 9 8 7 7 7 7 8 8 7 6 6 5 3 2 3 4 5 5 5 4 4 4 3 4 5
14 12 12 11 9 9 9 9 8 10 10 10 12 11 11 9 10 11 11 11 11 10 9 9 8 8 8 8 7 7 7 5 4 2 2 2 3 4 4 3 2 1 2 4
14 12 10 8 8 8 9 9 8 7 7 9 10 11 11 11 12 12 13 12 13 13 13 12 11 11 9 8 9 9 9 9 8 7 6 5 4 3 3 4 5 6 7 8
12 10 8 8 9 9 9 11 12 12 13 13 14 15 17 17 17 17 16 16 16 16 17 16 14 12 11 10 11 11 11 11 11 10 9 8 8 8 8 9 9 10 12 13
8 9 8 8 9 10 12 13 15 16 17 19 22 23 22 22 21 20 20 20 20 19 19 18 17 15 14 13 12 12 13 13 12 12 12 12 12 12 12 13 13 13 12 10
7 8 9 10 10 11 12 13 14 15 16 17 17 18 19 21 22 21 21 20 19 19 19 18 17 17 16 15 15 15 15 16 15 15 15 14 14 14 14 13 12 11 11 11
11 11 13 13 14 14 14 15 15 15 16 17 17 18 18 19 19 19 20 18 19 18 17 17 17 16 16 17 17 17 17 17 17 16 16 16 15 15 14 14 13 14 14 14
12 13 15 16 17 17 17 17 17 16 16 16 16 16 16 16 16 17 16 17 17 16 15 15 16 17 18 18 18 18 18 18 17 17 17 16 16 15 14 15 17 17 15 14
15 14 15 15 15 15 16 15 15 14 13 13 13 14 13 13 12 12 12 12 13 13 13 14 15 16 16 16 17 17 17 17 17 16 16 16 16 17 18 18 17 18 17 16
18 17 17 16 15 14 13 12 11 10 9 9 9 9 9 8 8 8 8 8 9 10 11 11 12 13 13 14 15 15 15 15 15 15 15 15 15 15 15 15 16 16 15 14
14 14 13 12 11 10 9 8 7 7 6 6 5 5 5 5 4 4 4 4 5 6 8 9 9 9 10 11 12 12 12 12 12 13 13 14 15 15 15 14 14 13 12 13

GFSNGP_700_spd_117.txt.gz
Wind_Speed
28 29 24 24 13 20 16 20 26 26 26 20 16 21 20 18 15 13 11 8 10 11 11 13 15 10 14 16 21 26 32 34 34 31 27 22 25 19 16 14 11 12 14 16
29 13 22 16 0 17 18 27 22 22 25 16 18 24 27 24 19 18 12 9 7 8 11 11 13 10 16 21 24 25 30 36 32 31 25 27 27 20 18 14 11 9 8 12
22 18 26 5 13 4 7 9 22 22 17 17 18 25 23 19 18 17 12 10 8 8 9 8 9 10 17 20 26 25 29 33 34 30 25 31 27 23 20 16 12 9 7 6
21 21 3 10 15 10 9 3 3 19 21 20 9 15 13 15 17 16 14 12 10 7 8 10 11 14 12 15 20 27 33 32 30 27 31 33 28 25 22 20 16 13 10 8
10 19 5 6 15 18 15 10 9 11 12 18 20 21 19 21 21 14 11 11 12 12 13 12 13 14 15 16 14 19 25 38 36 32 37 34 31 28 25 23 19 18 16 15
13 9 4 16 20 17 14 6 16 11 10 17 12 12 18 15 14 11 10 10 12 14 15 16 16 16 15 15 16 17 23 16 22 30 33 33 32 29 27 24 22 20 20 19
10 6 7 18 22 12 5 18 28 10 11 7 13 7 18 16 14 9 7 10 12 13 13 14 16 15 13 13 13 13 18 20 8 12 29 30 30 30 31 31 27 25 20 19
9 5 4 23 22 17 21 20 20 8 5 15 7 10 9 8 4 1 4 6 8 9 9 10 11 12 13 13 12 11 11 19 29 13 18 25 31 31 32 31 28 26 25 25
7 18 28 25 20 17 17 16 4 6 4 10 12 6 8 7 4 1 2 4 6 7 8 9 9 10 12 12 12 11 10 11 11 9 15 24 25 28 36 32 30 28 30 29
20 13 29 21 20 16 14 16 11 3 7 6 3 4 3 3 3 3 4 5 6 7 8 8 7 10 9 10 12 12 11 12 10 10 13 15 18 20 21 24 23 25 28 31
19 17 14 15 16 15 13 11 12 13 8 6 4 2 2 2 3 3 4 6 7 7 8 8 9 10 8 8 9 9 10 12 12 11 10 15 17 20 23 24 24 25 24 25
20 14 14 14 12 11 11 11 11 15 13 11 8 6 4 4 4 5 6 6 7 7 8 9 10 10 9 8 7 8 9 10 12 12 12 12 14 16 20 23 26 26 27 30
11 16 18 17 12 7 7 7 9 10 11 12 14 10 7 7 7 7 8 8 9 9 9 9 10 10 10 8 7 7 9 9 8 8 9 8 9 9 11 15 20 20 24 24
11 15 18 20 10 6 3 6 6 6 6 11 11 10 5 8 9 9 10 10 9 9 10 9 9 9 9 8 8 8 9 10 10 7 5 4 3 3 5 8 10 13 16 20
12 18 22 20 15 9 6 5 9 11 12 13 11 5 9 11 12 12 12 11 10 10 10 10 10 9 9 8 8 7 8 9 10 10 8 5 3 2 2 1 3 7 9 12
17 25 22 16 17 14 10 7 8 10 11 13 14 9 10 12 12 12 12 11 10 10 9 9 9 9 9 9 8 7 6 7 9 10 10 8 6 3 2 1 2 3 5 6
24 22 16 14 16 14 12 10 8 9 13 12 11 15 14 11 11 11 11 11 11 11 10 10 9 10 10 10 10 8 7 6 5 6 6 6 5 5 6 6 7 6 6 5
18 15 14 14 15 13 11 10 8 7 7 10 10 10 10 12 11 11 12 12 12 13 13 12 11 11 11 11 11 10 9 8 7 5 5 4 3 2 2 3 3 2 2 1
16 14 12 12 12 10 10 10 9 9 9 10 10 12 13 13 12 13 13 13 13 14 14 14 14 13 13 12 12 11 11 11 10 9 8 7 6 5 4 4 3 4 4 5
11 11 10 10 9 9 10 10 11 12 13 14 15 16 16 17 18 18 18 17 18 18 18 18 17 16 15 14 13 13 14 14 14 14 13 12 11 9 9 9 9 9 9 9
8 9 10 10 10 10 10 11 12 13 14 15 15 15 16 17 18 20 21 21 21 22 22 22 21 19 18 17 16 16 16 17 17 17 16 16 15 14 14 13 13 12 12 12
9 10 10 11 12 13 13 14 15 15 16 18 18 19 20 20 20 20 20 19 19 20 21 21 21 20 20 18 18 18 18 19 19 19 19 19 18 17 17 17 16 15 14 13
14 14 15 15 15 16 17 18 18 18 18 19 20 20 21 21 22 23 23 22 22 20 20 19 19 20 20 19 19 20 20 20 21 22 21 21 21 20 19 19 18 17 15 14
15 15 16 16 17 18 18 19 19 20 20 20 20 20 20 20 20 21 21 21 22 21 20 18 17 19 18 18 19 20 21 22 22 22 22 22 22 21 20 19 18 17 16 16
17 17 18 18 18 18 18 19 19 19 19 19 18 18 18 18 18 17 17 18 18 18 17 17 16 15 16 17 18 19 20 20 21 21 21 21 20 19 18 18 18 18 19 19
18 18 17 17 17 17 17 17 16 16 15 15 15 14 14 14 13 13 12 12 13 13 14 13 13 13 13 14 15 16 16 16 17 17 17 18 18 18 18 18 18 18 18 18
16 16 15 14 13 13 12 12 11 11 10 10 10 10 10 10 9 9 9 9 9 9 10 10 11 11 12 12 13 14 15 15 16 16 16 16 16 16 16 16 17 17 17 18

GFSNGP_700_spd_120.txt.gz
Wind_Speed
27 30 32 26 32 19 16 14 11 23 20 14 13 7 20 26 21 17 21 16 9 5 7 10 12 11 9 10 10 13 19 26 31 33 35 36 32 28 24 20 19 19 17 13
33 27 22 33 23 15 13 12 16 16 19 15 11 22 15 16 28 34 26 20 8 3 7 10 11 11 11 10 11 15 19 23 28 31 35 34 31 27 24 17 21 17 13 9
31 22 33 9 20 19 15 6 10 13 15 14 12 11 19 17 15 26 16 15 7 4 6 9 11 11 12 12 13 20 21 25 27 32 36 36 32 29 22 21 23 17 12 8
24 26 5 15 22 21 18 19 22 5 14 9 13 11 10 11 10 13 9 6 4 3 4 8 11 12 12 12 13 14 20 25 28 29 35 33 32 26 25 27 25 19 14 11
9 18 17 9 30 30 25 21 33 24 8 6 10 8 12 5 9 11 9 7 4 5 7 11 12 14 14 14 15 15 16 23 30 33 33 33 32 28 27 31 26 22 19 16
17 10 5 23 30 24 12 4 38 23 14 11 17 12 13 12 8 5 9 5 4 6 10 13 14 15 15 15 14 14 13 17 18 34 34 31 33 28 31 33 29 26 22 19
17 11 3 20 36 22 20 21 32 28 13 7 9 16 17 10 7 7 3 2 5 9 11 12 12 13 13 13 13 12 14 14 14 21 38 31 31 35 33 34 30 27 24 23
12 10 5 31 30 22 20 18 25 29 9 14 12 11 6 6 3 3 0 3 6 7 8 9 11 11 12 13 13 13 12 14 15 16 21 22 29 31 34 37 33 33 25 25
8 13 17 28 24 19 20 18 20 18 10 10 8 9 12 9 8 5 3 4 5 7 7 9 9 9 11 11 12 12 13 13 14 16 16 13 28 39 30 34 33 32 30 37
16 15 23 20 14 15 16 13 13 19 7 6 4 8 7 5 4 4 3 5 6 6 7 8 8 9 10 9 10 11 11 11 15 15 14 11 11 19 14 32 27 30 32 32
9 10 14 19 14 10 12 11 7 12 17 10 3 2 5 5 5 6 6 7 7 8 8 9 10 10 10 9 9 8 9 8 10 12 13 12 8 5 21 17 12 23 25 25
15 13 19 22 22 15 10 9 7 7 10 13 7 2 2 3 5 6 8 8 8 8 8 9 9 10 10 10 9 9 9 9 8 9 11 9 8 12 12 4 10 12 15 23
19 12 16 21 23 16 10 8 7 7 7 7 10 11 4 4 4 5 7 7 8 7 9 10 10 9 9 9 10 10 10 10 9 7 6 6 5 6 7 10 14 20 20 24
16 14 15 20 21 15 10 9 9 8 7 7 9 13 11 6 8 9 10 10 10 9 9 9 10 10 10 10 10 11 11 10 11 11 9 6 3 2 3 5 10 15 16 18
15 17 20 23 20 16 12 10 11 11 12 12 11 12 13 7 9 10 11 11 10 9 8 9 9 9 9 9 10 10 10 11 11 11 11 9 6 3 1 0 3 6 9 12
23 25 27 23 17 14 15 13 11 12 13 12 11 10 12 10 9 10 10 10 10 9 9 9 9 10 9 9 9 9 9 9 10 11 11 10 9 6 5 3 2 2 5 6
25 25 22 17 14 15 15 13 11 11 11 12 13 11 12 13 14 12 11 9 9 10 9 9 9 10 11 11 10 9 9 8 8 9 9 8 7 6 6 6 6 5 4 4
22 18 16 15 15 15 13 11 8 8 10 10 9 10 10 12 12 12 12 11 11 12 11 10 11 10 11 12 12 11 9 8 7 6 7 6 5 4 3 2 2 2 2 1
16 17 15 13 14 13 12 9 8 8 9 9 10 10 10 12 14 13 14 14 14 15 14 14 14 13 13 13 14 13 12 10 9 7 6 6 7 6 6 6 6 5 5 5
10 11 11 11 11 11 11 10 9 10 11 11 11 11 12 14 16 17 17 17 18 18 18 18 19 17 16 16 16 15 14 13 12 11 11 11 10 10 10 10 10 10 9 9
8 8 8 9 11 11 12 13 13 13 13 13 13 13 13 14 15 16 16 15 18 18 19 20 20 19 19 18 18 17 16 16 15 14 14 15 15 14 14 13 13 12 12 12
11 12 11 11 12 13 13 14 16 17 16 16 16 16 16 16 17 17 18 17 18 17 17 18 19 19 20 20 19 19 18 17 17 17 17 17 17 18 18 17 16 16 16 15
15 15 14 14 14 14 15 15 16 17 18 18 19 19 19 19 20 19 18 19 18 18 18 17 18 19 20 20 19 19 19 19 19 19 20 20 20 20 20 19 18 18 17 16
16 16 17 17 17 17 17 17 17 18 18 18 19 20 20 20 19 20 20 20 19 19 18 17 17 17 18 18 19 20 20 20 20 21 22 21 21 21 20 20 19 18 18 18
19 19 20 20 20 20 20 20 19 19 19 18 18 18 18 19 19 19 18 18 18 17 16 16 15 15 15 16 17 19 19 19 20 20 20 20 20 19 19 19 19 18 17 17
20 20 19 19 19 19 19 18 18 18 18 17 17 16 16 16 16 15 15 15 15 14 14 13 13 13 13 13 15 16 16 17 18 18 17 17 16 16 16 16 16 17 17 17
16 17 16 16 15 15 15 15 15 14 15 14 14 14 14 14 13 13 13 12 12 11 11 10 10 10 11 11 11 12 13 14 15 15 15 15 16 16 15 15 15 15 15 16

GFSNGP_700_spd_123.txt.gz
Wind_Speed
29 35 35 37 33 38 31 19 17 25 20 18 18 16 11 20 13 4 17 8 25 14 10 5 3 6 8 9 7 8 11 19 25 27 28 31 33 30 33 32 28 26 22 19
38 33 29 32 17 34 22 12 9 19 11 16 16 10 14 14 14 12 15 22 21 12 7 4 1 5 8 7 6 6 8 11 20 29 32 33 30 29 33 31 27 25 22 15
33 32 32 6 35 31 20 42 26 28 23 8 15 11 11 11 8 12 11 12 12 8 4 3 6 6 7 9 10 8 16 16 17 18 24 33 33 33 35 31 27 25 21 14
25 25 4 8 30 23 23 21 35 28 10 7 9 7 8 5 3 7 17 13 6 2 3 4 10 9 9 10 10 9 8 11 16 18 22 24 29 32 28 27 27 27 20 16
6 13 20 12 35 32 25 11 37 38 5 15 11 3 5 1 4 5 4 4 5 5 5 9 10 14 12 12 12 11 10 8 9 23 25 25 31 29 32 25 27 24 21 20
12 7 2 27 34 30 13 4 38 28 20 5 11 6 13 6 5 9 5 7 6 5 6 10 12 12 11 11 10 10 10 9 11 13 20 30 33 30 31 23 27 25 24 24
11 6 3 24 36 21 23 21 29 18 21 15 15 16 13 11 10 6 6 5 2 2 4 8 10 11 11 11 10 9 9 8 9 10 10 17 29 32 37 40 37 32 31 30
9 7 6 32 31 24 16 17 16 17 12 13 10 7 6 3 5 8 5 4 3 3 4 5 9 10 10 11 10 9 9 9 9 10 11 11 18 33 32 41 38 32 35 34
11 4 20 19 21 16 11 12 14 12 16 5 8 11 9 9 7 6 4 4 4 4 5 6 7 8 11 10 9 9 9 9 9 9 10 10 8 20 32 37 28 35 39 30
9 11 16 17 17 14 9 8 6 11 11 14 6 5 6 10 9 8 6 6 6 6 7 7 8 8 10 11 9 8 8 9 9 10 9 10 10 6 22 32 32 44 33 36
6 7 12 17 19 15 10 8 9 10 9 12 11 7 3 5 10 9 7 7 7 7 7 8 8 8 9 10 10 9 8 8 10 11 10 7 9 6 7 23 32 21 22 37
11 12 11 14 20 20 14 10 8 7 9 8 8 8 5 1 7 8 10 8 9 9 9 9 10 9 8 8 8 9 10 10 9 8 9 9 7 8 10 6 11 22 14 13
13 15 14 13 17 21 16 14 9 10 10 8 7 9 10 8 5 8 8 10 10 9 9 9 8 7 7 8 9 10 10 10 11 11 10 8 6 5 5 12 12 9 6 2
11 16 17 18 20 19 13 14 13 10 11 11 13 11 10 9 5 8 8 8 9 8 8 8 9 8 8 8 8 9 9 9 11 12 12 11 8 4 3 4 6 10 13 14
12 16 21 22 23 22 11 14 15 13 11 11 11 12 13 10 7 8 8 7 7 7 7 8 8 9 8 8 9 9 9 9 10 10 11 11 10 9 4 3 1 2 4 6
18 22 27 26 20 18 13 14 15 14 12 12 12 10 11 12 9 9 9 9 7 6 6 7 7 8 8 8 8 9 9 9 9 8 8 8 9 9 8 6 5 3 2 1
24 26 24 21 18 14 14 15 13 12 12 11 12 11 10 13 11 9 9 10 10 9 8 7 7 8 9 9 8 8 9 9 8 7 6 5 5 5 6 6 7 6 5 4
22 19 16 17 17 14 13 12 11 11 10 10 10 10 10 12 13 10 7 9 11 11 10 9 8 9 9 10 9 9 9 9 8 7 6 5 4 4 3 3 3 2 2 2
14 11 10 11 12 11 11 10 9 8 9 11 11 12 12 13 14 14 13 12 12 13 14 12 12 11 12 11 11 11 11 10 9 8 7 7 6 5 4 4 4 4 4 4
8 9 8 8 8 9 10 9 8 9 10 11 12 13 13 13 14 13 14 14 13 14 17 16 16 15 14 15 15 13 14 13 12 10 10 9 9 9 9 9 8 8 8 8
8 9 10 10 10 10 9 9 9 9 10 11 12 12 13 14 15 14 13 15 12 13 14 13 14 15 14 16 15 14 14 14 14 14 13 11 11 11 12 12 12 11 10 9
11 11 12 12 14 14 13 12 12 12 12 12 12 13 15 15 15 16 16 16 16 15 14 14 15 15 15 16 15 15 16 15 15 14 13 13 13 13 13 14 13 14 13 12
13 14 14 13 12 14 15 15 14 14 14 14 14 14 14 15 15 15 16 16 16 15 16 16 16 17 17 16 16 16 16 16 16 15 15 15 15 15 15 14 14 14 14 14
17 17 17 16 17 16 16 16 16 16 16 17 17 17 15 14 15 14 15 15 15 15 15 16 16 15 16 16 15 15 15 15 16 16 17 17 17 17 16 15 15 15 15 14
20 19 19 18 17 16 16 14 14 14 13 14 14 15 16 16 16 15 14 15 15 14 14 14 13 13 13 14 15 15 15 15 15 15 16 16 16 16 15 16 15 15 14 14
18 17 16 16 16 16 16 15 14 16 14 12 12 12 12 12 11 12 12 12 12 12 11 11 11 11 11 12 12 13 13 13 13 14 14 14 14 14 13 13 13 13 13 13
15 16 16 14 14 14 15 15 14 15 15 14 14 14 13 13 13 12 11 11 10 10 10 9 9 8 9 9 10 10 11 11 12 12 12 12 12 12 12 13 13 13 13 13